Weather at Agéo Fazenda Capitão do Mato Heliport

Public forecast

Using degrees Celsius for public forecast. Weather courtesy of forecast.io.

Closest aviation weather report (METAR) to Agéo Fazenda Capitão do Mato Heliport

Report is more than 6 hours old.

Closest report is Carlos Prates Airport, 15.6 nm (28.8 km) NNW. Retrieved 2020/09/26 20:00 UTC (8 hours ago):

SBPR 262000Z 05005KT CAVOK 30/09 Q1016

Closest aviation forecast (TAF) to Agéo Fazenda Capitão do Mato Heliport

Forecast is more than 12 hours old.

Closest forecast is Pampulha - Carlos Drummond de Andrade Airport, 18.6 nm (34.5 km) N. Retrieved 2012/03/26 18:12 UTC (9 years ago):

TAF SBBH 261639Z 2618/2706 09005KT 9999 SCT030 TX28/2618Z TN20/2705Z PROB30 2619/2624 8000 TSRA BKN035 FEW045CB RMK PGG